FENGYUN 1C DEB

Satellite information

Favourite Embed

Satellite Type and Status

DEBRISIN ORBIT

Key statistics

Satellite FENGYUN 1C DEB at a glance.

Uptime

9715

Days in orbit

Revolutions

≈ 14.1

Per day

Orbit

SSO

Sun Synchronous Orbit

Inclination

98.5

Latest

Satellite identification and parameters

Extended collection of information and parameters for FENGYUN 1C DEB.

Object identification

Identified? True

Debris? True

Object name: FENGYUN 1C DEB

International designator: 1999-025AHX

Object number (NORAD): 30509

Object ID (CCSDS): 30509

Country: PEOPLES REPUBLIC OF CHINA (PRC)

Current information (Y/N): Y

RCS size: SMALL

Orbital parameters

Period: 102.298 minutes

Inclination: 98.4652 deg

SMA: 7245.554 km

Apoapsis: 941.136 km

Periapsis: 793.702 km

RAAN: 218.761 deg

Eccentricy: 0.01017409

Argument of periapsis: 62.8698 deg

Mean anomaly: 313.769 deg

Mean motion: 14.07652269 rev/day

Mean motion (dot): 0.00005195 rev/day2

B* drag term: 0.0029538181 1/REarth

Two-line elements (TLE)

Creation date: Dec. 13, 2025, 4:32 a.m.

Reference frame: TEME

Reference center: EARTH

Epoch: Dec. 12, 2025, 10:17 p.m. UTC

TLE line 0: 0 FENGYUN 1C DEB

TLE line 1: 1 30509U 99025AHX 25346.92898859 .00005195 00000-0 29538-2 0 9999

TLE line 2: 2 30509 98.4652 218.7610 0101741 62.8698 313.7690 14.07652269957250

Live tracking on map

Real-time ground track for satellite FENGYUN 1C DEB.

In-orbit conjunctions

A list of the most updated potential collisions computed for object FENGYUN 1C DEB.

Target Orbit TCA Probability of collision Miss distance Type
FENGYUN 1C DEB SSO 2025-11-29 08:38:37 0.0001052326 94.0 (m) DEBRIS
COSMOS 2251 DEB LEO 2025-07-12 04:56:03 0.0001913285 59.0 (m) DEBRIS
SL-3 R/B LEO 2025-05-30 16:37:58 0.001518807 80.0 (m) ROCKET BODY
SL-3 R/B LEO 2025-05-30 04:42:48 0.0003383634 97.0 (m) ROCKET BODY
SL-8 R/B LEO 2024-09-05 03:52:02 0.0004657994 36.0 (m) ROCKET BODY

Associated space launch

Chinese polar orbiting meteorological satellite

FENGYUN 1C DEB was lifted into orbit during the mission ‘Long March 4B | Feng Yun 1C’, on board a Long March 4B space rocket.

The launch took place on May 10, 1999, 1:33 a.m. from Launch Complex 7.

For more information about the launch, click the button.

Launch to space Long March 4B | Feng Yun 1C
Long March 4B | Feng Yun 1C

Agency: N/A

Status: Launch Successful

Launch date: May 10, 1999, 1:33 a.m. UTC

Rocket: Long March 4B

Launch pad: Launch Complex 7

Location: Taiyuan Satellite Launch Center, People's Republic of China

...

Latest news about this satellite

There are no fresh news available about this satellite. Check back as we update our databases every day.


Newsletter sign-up

Weekly statistics, charts and insights to help you stay on top of the space industry.